STARLINK-32333, 61626

Orbit data source: Space-Track

STARLINK-32333, 61626 is a payload satellite owned by SpaceX/Seattle (US) in LEO that was launched on Wed, 23 Oct 2024 UTC via an FALCON 9 launch vehicle from the Air Force Eastern Test Range (AFETR). Payload-class satellites include a variety of spacecraft equipped with specific instruments for various scientific and technological missions. These include communications satellites like Starlink; space stations such as the ISS; scientific satellites like the Hubble; Earth observation satellites from companies like Planet Labs, Umbra, and HawkEye 360; GPS; miniature CubeSats for education and research; and military/defense satellites.

Loading next visibility...
Identifier
61626, 2024-191F
Orbit
LEO
Country
Flag of USUS
Related business
Manufacturer
SpaceX/Seattle
Mission
Operational Commercial Communications
Bus & Motor
STARLINK V2M, Unknown motor
Mass
730 kg wet, ~700 kg dry
Launch date (UTC)
2024-10-23 (2 years ago)
Launch vehicle
FALCON 9
Launch site
Air Force Eastern Test Range (AFETR)
Object type
Payload
Rocket body
Debris
Shape & HBR
Box + 2 Pan, 17.7 m
Radar Cross Section
33.884 m², Large (>1 m²)

Expand to show TLE details & history
Last TLE update: 22 hours ago

TLE from 22 hours ago
0 STARLINK-32333
1 61626U 24191F   26246.66797950 -.00000162  00000-0  36234-5 0  9990
2 61626  43.0012 233.0330 0001077 274.6475  85.4254 15.27576548104718
Epoch: 2026-09-03T16:01Z
TLE epoch observation values (Epoch: 2026-09-03T16:01:53.428Z)
Latitude
-0.00001°
Longitude
9.75752°
Altitude
482.776 km
Speed
7.626 km/s
True Right ascension
15h 32m 07s
True Declination
0° 00' 00"
Sunlit
Object was in daylight at epoch
Visualization orbit readout
Latitude
Unknown
Longitude
Unknown
Altitude
Unknown
Speed
Unknown
Apparent Right ascension
Unknown
Apparent Declination
Unknown
Sunlit
N/A
Visualization observer readout
Local Sidereal Time
05:26:33
Azimuth
Unknown
Elevation
Unknown
Doppler factor
Unknown
Orbital elements
Apogee altitude
485.744 km
Perigee altitude
484.265 km
Semi-major axis
6,863.141 km
Eccentricity
0.00011
Inclination
43.0012°
RAAN
233.033°
Arg. of periapsis
274.6475°
True anomaly
85.4377°
Mean anomaly
85.4254°
Eccentric anomaly
85.43155°
Mean motion
3.81732 °/min
Orbital period
94.31 mins
BSTAR
0.0000036234
Loading maneuver chart data...
Computing Atmospheric mass density...
Loading historical data...
Loading historical data...
Loading historical data...
Loading historical data...
Loading historical data...
Loading historical data...
Loading historical data...

Documentation

Showing up to 5 results
|